TimeCST,TemperatureF,Dew PointF,Humidity,Sea Level PressureIn,VisibilityMPH,Wind Direction,Wind SpeedMPH,Gust SpeedMPH,PrecipitationIn,Events,Conditions,WindDirDegrees,DateUTC
12:00 AM,64.4,64.4,100,30.30,6.2,NNE,4.6,-,N/A,,Mostly Cloudy,20,2013-09-06 06:00:00
1:00 AM,64.4,64.4,100,30.30,6.2,NNE,4.6,-,N/A,,Scattered Clouds,20,2013-09-06 07:00:00
2:00 AM,64.4,62.6,94,30.27,6.2,NE,4.6,-,N/A,,Scattered Clouds,40,2013-09-06 08:00:00
2:25 AM,-9999,-9999,N/A,-9999,4.3,North,4.6,-,N/A,,Mostly Cloudy,360,2013-09-06 08:25:00
3:00 AM,62.6,62.6,100,30.24,4.3,North,4.6,-,N/A,,Mostly Cloudy,360,2013-09-06 09:00:00
3:25 AM,-9999,-9999,N/A,-9999,4.3,North,4.6,-,N/A,,Mostly Cloudy,360,2013-09-06 09:25:00
4:00 AM,62.6,62.6,100,30.24,4.3,North,4.6,-,N/A,,Mostly Cloudy,10,2013-09-06 10:00:00
5:00 AM,62.6,60.8,94,30.27,6.2,North,4.6,-,N/A,,Mostly Cloudy,360,2013-09-06 11:00:00
6:00 AM,62.6,60.8,94,30.24,5.0,North,13.8,-,N/A,,Mostly Cloudy,360,2013-09-06 12:00:00
7:00 AM,62.6,62.6,100,30.24,6.2,NNE,4.6,-,N/A,,Scattered Clouds,30,2013-09-06 13:00:00
1:00 PM,77.0,62.6,61,30.24,6.2,North,9.2,-,N/A,,Scattered Clouds,360,2013-09-06 19:00:00
1:25 PM,-9999,-9999,N/A,-9999,6.2,NE,6.9,-,N/A,Thunderstorm,Thunderstorm,40,2013-09-06 19:25:00
2:00 PM,77.0,60.8,57,30.21,6.2,NNE,9.2,-,N/A,Thunderstorm,Thunderstorm,20,2013-09-06 20:00:00
3:00 PM,71.6,64.4,78,30.21,6.2,WSW,6.9,-,N/A,Rain-Thunderstorm,Light Thunderstorms and Rain,240,2013-09-06 21:00:00
4:00 PM,68.0,-9999,N/A,30.18,6.2,SSW,6.9,-,N/A,,Scattered Clouds,200,2013-09-06 22:00:00
5:00 PM,69.8,62.6,78,30.18,6.2,SSW,4.6,-,N/A,,Scattered Clouds,200,2013-09-06 23:00:00
6:00 PM,68.0,62.6,83,30.21,-9999.0,North,-9999.0,-,N/A,,Mostly Cloudy,0,2013-09-07 00:00:00
6:28 PM,-9999,-9999,N/A,-9999,3.1,South,6.9,-,N/A,,Mostly Cloudy,180,2013-09-07 00:28:00
7:00 PM,66.2,64.4,94,30.24,3.1,South,4.6,-,N/A,,Mostly Cloudy,180,2013-09-07 01:00:00
8:00 PM,66.2,62.6,88,30.24,3.7,South,4.6,-,N/A,,Mostly Cloudy,180,2013-09-07 02:00:00
9:00 PM,64.4,62.6,94,30.27,3.7,South,4.6,-,N/A,,Mostly Cloudy,180,2013-09-07 03:00:00
10:00 PM,64.4,62.6,94,30.30,3.1,Calm,Calm,-,N/A,,Mostly Cloudy,0,2013-09-07 04:00:00
11:00 PM,64.4,62.6,94,30.27,2.5,Calm,Calm,-,N/A,,Mostly Cloudy,0,2013-09-07 05:00:00
11:40 PM,-9999,-9999,N/A,-9999,5.0,NNE,9.2,-,N/A,,Light Drizzle,30,2013-09-07 05:40:00